User: anonymous   Login
Location: Unspecified
(0.0000°N, 0.0000°E)
Time: 08:08:24
(UTC+01:00)
Language:

OPAL - Orbit

View from above orbital plane
View from above orbital plane
View from above satellite
View from above satellite

Ground track
Ground track

The orbit data is extracted from the following two-line orbital elements,

1 26063U 00004C   15031.14160256  .00000173  00000-0  78651-4 0  1709
2 26063 100.2270 224.4054 0036179 235.1255 124.6522 14.36485826786742
Epoch (UTC): 31 January 2015 03:23:54
Eccentricity: 0.0036179
inclination: 100.2270°
perigee height: 744 km
apogee height: 796 km
right ascension of ascending node: 224.4054°
argument of perigee: 235.1255°
revolutions per day: 14.36485826
mean anomaly at epoch: 124.6522°
orbit number at epoch: 78674

The dashed part of the orbit path shows where the satellite is in the earth's shadow,  

DLR